Weather History for Crosby, ND

Change the Weather History Date:

Tuesday, April 30, 2013

  Actual Average (KISN) Record (KISN)
Temperature  
Mean Temperature 30 °F 49 °F  
Max Temperature 37 °F 63 °F 91 °F (1901)
Min Temperature 24 °F 35 °F 13 °F (1954)
Degree Days  
Heating Degree Days 34 16  
Month to date heating degree days 650  
Since 1 July heating degree days 8525  
Cooling Degree Days 0 0  
Month to date cooling degree days 1  
Year to date cooling degree days 1  
Moisture  
Dew Point 29 °F    
Average Humidity 92    
Maximum Humidity 100    
Minimum Humidity 74    
Precipitation  
Precipitation 1.26 in 0.05 in 1.24 in (1948)
Month to date precipitation 1.00  
Year to date precipitation 2.69  
Sea Level Pressure  
Sea Level Pressure 29.73 in    
Wind  
Wind Speed 13 mph (NW)    
Max Wind Speed 29 mph    
Max Gust Speed 39 mph    
Visibility 8 miles    
Events Rain , Snow , Thunderstorm    
T = Trace of Precipitation, MM = Missing Value Source: NWS Daily Summary

Daily Weather History Graph

Daily Weather History Graph

Search for Another Location

Airport:

Trip Planner

Search our weather history database for the weather conditions in past years. The results will help you decide how hot, cold, wet, or windy it might be!

Date:

Astronomy

Apr. 30, 2013 Rise Set
Actual Time 6:33 AM CDT 9:07 PM CDT
Civil Twilight 5:58 AM CDT 9:43 PM CDT
Nautical Twilight 5:13 AM CDT 10:28 PM CDT
Astronomical Twilight 4:21 AM CDT 11:21 PM CDT
Moon 1:38 AM CDT (4/30) 11:00 AM CDT (4/30)
Length of Visible Light 15h 45m
Length of Day
14h 34m
Waning Gibbous, 70% of the Moon is Illuminated
Apr 30
Waning Gibbous
May 2
Last Quarter
May 9
New
May 17
First Quarter
May 24
Full

Hourly Weather History & Observations

Time (CDT) Temp. Windchill Dew Point Humidity Pressure Visibility Wind Dir Wind Speed Gust Speed Precip Events Conditions
12:15 AM 37.4 °F - 37.4 °F 100% 29.45 in 10.0 mi Calm Calm - N/A   Clear
12:35 AM 35.6 °F - 35.6 °F 100% 29.45 in 10.0 mi Calm Calm - N/A   Mostly Cloudy
12:55 AM 35.6 °F - 35.6 °F 100% 29.44 in 10.0 mi Calm Calm - N/A   Partly Cloudy
1:15 AM 35.6 °F 31.7 °F 35.6 °F 100% 29.44 in 10.0 mi SSE 4.6 mph - N/A   Scattered Clouds
1:35 AM 35.6 °F 29.9 °F 35.6 °F 100% 29.44 in 10.0 mi SSW 6.9 mph - N/A   Scattered Clouds
1:55 AM 33.8 °F 30.8 °F 33.8 °F 100% 29.43 in 10.0 mi South 3.5 mph - N/A   Clear
2:15 AM 33.8 °F 28.6 °F 33.8 °F 100% 29.43 in 10.0 mi SW 5.8 mph - N/A   Clear
2:35 AM 35.6 °F 29.9 °F 35.6 °F 100% 29.42 in 10.0 mi SSW 6.9 mph - N/A   Clear
2:55 AM 35.6 °F 29.2 °F 35.6 °F 100% 29.43 in 10.0 mi WSW 8.1 mph - N/A Thunderstorm Clear
3:15 AM 37.4 °F 29.8 °F 37.4 °F 100% 29.43 in 10.0 mi West 11.5 mph - N/A   Clear
3:35 AM 35.6 °F 28.0 °F 35.6 °F 100% 29.44 in 10.0 mi West 10.4 mph - N/A   Clear
3:55 AM 37.4 °F 29.8 °F 35.6 °F 93% 29.44 in 10.0 mi West 11.5 mph - N/A   Clear
4:15 AM 35.6 °F 27.5 °F 35.6 °F 100% 29.44 in 10.0 mi West 11.5 mph - N/A   Scattered Clouds
4:35 AM 35.6 °F 27.5 °F 35.6 °F 100% 29.44 in 10.0 mi WSW 11.5 mph - N/A   Mostly Cloudy
4:55 AM 35.6 °F 26.2 °F 35.6 °F 100% 29.45 in 10.0 mi West 15.0 mph - N/A   Scattered Clouds
5:15 AM 35.6 °F 25.9 °F 35.6 °F 100% 29.45 in 10.0 mi West 16.1 mph - N/A   Mostly Cloudy
5:35 AM 35.6 °F 26.2 °F 35.6 °F 100% 29.46 in 10.0 mi West 15.0 mph 21.9 mph N/A   Mostly Cloudy
5:55 AM 35.6 °F 25.9 °F 35.6 °F 100% 29.46 in 10.0 mi West 16.1 mph 20.7 mph N/A Rain Light Rain
6:15 AM 35.6 °F 24.2 °F 35.6 °F 100% 29.46 in 10.0 mi West 21.9 mph 26.5 mph N/A Rain Light Rain
6:35 AM 35.6 °F 25.5 °F 35.6 °F 100% 29.46 in 9.0 mi West 17.3 mph 26.5 mph N/A   Overcast
6:55 AM 35.6 °F 25.5 °F 35.6 °F 100% 29.46 in 10.0 mi West 17.3 mph 24.2 mph N/A   Overcast
7:15 AM 33.8 °F 22.5 °F 33.8 °F 100% 29.47 in 6.0 mi WNW 19.6 mph 27.6 mph N/A   Overcast
7:35 AM 32.0 °F 20.1 °F 32.0 °F 100% 29.48 in 10.0 mi WNW 19.6 mph 26.5 mph N/A   Overcast
7:55 AM 32.0 °F 20.1 °F 32.0 °F 100% 29.49 in 4.0 mi NW 19.6 mph 29.9 mph 0.01 in Snow Light Snow
8:15 AM 32.0 °F 19.5 °F 32.0 °F 100% 29.51 in 3.0 mi NW 21.9 mph 27.6 mph 0.03 in Snow Light Snow
8:35 AM 32.0 °F 19.5 °F 32.0 °F 100% 29.53 in 4.0 mi NW 21.9 mph 29.9 mph 0.03 in Rain Light Rain
8:55 AM 32.0 °F 20.1 °F 32.0 °F 100% 29.55 in 1.8 mi NW 19.6 mph 29.9 mph 0.08 in Snow Light Snow
9:15 AM 32.0 °F 20.1 °F 32.0 °F 100% 29.57 in 1.2 mi NW 19.6 mph 31.1 mph 0.11 in Snow Light Snow
9:35 AM 32.0 °F 19.8 °F 32.0 °F 100% 29.58 in 0.5 mi NW 20.7 mph 31.1 mph 0.69 in Snow Snow
9:55 AM 32.0 °F 17.9 °F 32.0 °F 100% 29.60 in 0.5 mi NW 28.8 mph 39.1 mph 0.98 in Snow Snow
10:15 AM 30.2 °F 16.5 °F 30.2 °F 100% 29.62 in 1.0 mi NW 24.2 mph 35.7 mph 0.06 in   Overcast
10:35 AM 30.2 °F 16.2 °F 28.4 °F 93% 29.64 in 1.8 mi NNW 25.3 mph 35.7 mph 0.14 in   Overcast
10:55 AM 28.4 °F 13.5 °F 28.4 °F 100% 29.66 in 10.0 mi NNW 26.5 mph 36.8 mph 0.15 in Rain Light Freezing Rain
11:15 AM 28.4 °F 14.4 °F 26.6 °F 93% 29.68 in 10.0 mi NNW 23.0 mph 31.1 mph N/A   Overcast
11:35 AM 28.4 °F 14.4 °F 24.8 °F 86% 29.69 in 10.0 mi NNW 23.0 mph 34.5 mph N/A   Overcast
11:55 AM 28.4 °F 13.8 °F 24.8 °F 86% 29.71 in 10.0 mi NW 25.3 mph 32.2 mph N/A Rain Light Freezing Rain
12:15 PM 28.4 °F 14.4 °F 23.0 °F 80% 29.73 in 10.0 mi NNW 23.0 mph 32.2 mph N/A   Overcast
12:35 PM 28.4 °F 14.7 °F 24.8 °F 86% 29.74 in 6.0 mi NNW 21.9 mph 29.9 mph N/A Rain Light Freezing Rain
12:55 PM 28.4 °F 13.8 °F 24.8 °F 86% 29.76 in 8.0 mi NNW 25.3 mph 31.1 mph N/A Rain Light Freezing Rain
1:15 PM 28.4 °F 14.4 °F 24.8 °F 86% 29.77 in 10.0 mi NNW 23.0 mph 31.1 mph N/A   Overcast
1:35 PM 28.4 °F 14.1 °F 24.8 °F 86% 29.78 in 8.0 mi NW 24.2 mph 29.9 mph N/A Rain Light Freezing Rain
2:15 PM 28.4 °F 14.1 °F 23.0 °F 80% 29.82 in 8.0 mi NNW 24.2 mph 32.2 mph N/A Rain Light Freezing Rain
2:35 PM 28.4 °F 14.7 °F 24.8 °F 86% 29.83 in 10.0 mi NNW 21.9 mph 28.8 mph N/A Rain Light Freezing Rain
2:55 PM 28.4 °F 15.4 °F 23.0 °F 80% 29.85 in 10.0 mi NNW 19.6 mph 31.1 mph N/A   Overcast
3:15 PM 28.4 °F 15.4 °F 23.0 °F 80% 29.86 in 10.0 mi NNW 19.6 mph 28.8 mph N/A Rain Light Freezing Rain
3:35 PM 28.4 °F 15.4 °F 23.0 °F 80% 29.88 in 10.0 mi NNW 19.6 mph 28.8 mph N/A Rain Light Freezing Rain
3:55 PM 28.4 °F 14.7 °F 24.8 °F 86% 29.89 in 1.5 mi NW 21.9 mph 27.6 mph 0.02 in Snow Light Snow
4:15 PM 28.4 °F 14.1 °F 24.8 °F 86% 29.91 in 5.0 mi NW 24.2 mph 29.9 mph 0.01 in Rain Light Freezing Rain
4:35 PM 28.4 °F 16.6 °F 24.8 °F 86% 29.92 in 8.0 mi NNW 16.1 mph 28.8 mph 0.01 in Rain Light Freezing Rain
4:55 PM 28.4 °F 13.8 °F 24.8 °F 86% 29.93 in 9.0 mi NW 25.3 mph 31.1 mph 0.02 in Rain Light Freezing Rain
5:15 PM 28.4 °F 14.4 °F 24.8 °F 86% 29.95 in 10.0 mi NW 23.0 mph 28.8 mph N/A   Overcast
5:35 PM 28.4 °F 15.1 °F 23.0 °F 80% 29.96 in 10.0 mi NW 20.7 mph 28.8 mph N/A Rain Light Freezing Rain
5:55 PM 28.4 °F 15.4 °F 23.0 °F 80% 29.97 in 10.0 mi NW 19.6 mph 26.5 mph N/A   Overcast
6:15 PM 28.4 °F 15.1 °F 24.8 °F 86% 29.98 in 8.0 mi NNW 20.7 mph 27.6 mph N/A Rain Light Freezing Rain
6:35 PM 28.4 °F 14.7 °F 24.8 °F 86% 29.99 in 10.0 mi NW 21.9 mph 26.5 mph N/A   Overcast
6:55 PM 28.4 °F 15.4 °F 24.8 °F 86% 30.00 in 10.0 mi NNW 19.6 mph 32.2 mph N/A   Overcast
7:15 PM 30.2 °F 17.1 °F 24.8 °F 80% 30.01 in 10.0 mi NNW 21.9 mph 28.8 mph N/A   Overcast
7:35 PM 28.4 °F 15.4 °F 24.8 °F 86% 30.02 in 5.0 mi NNW 19.6 mph 31.1 mph N/A Snow Light Snow
7:55 PM 28.4 °F 15.4 °F 24.8 °F 86% 30.04 in 10.0 mi NNW 19.6 mph 26.5 mph N/A   Mostly Cloudy
8:15 PM 28.4 °F 16.6 °F 23.0 °F 80% 30.06 in 10.0 mi NNW 16.1 mph 23.0 mph N/A   Scattered Clouds
8:35 PM 28.4 °F 16.2 °F 21.2 °F 74% 30.06 in 10.0 mi NNW 17.3 mph 23.0 mph N/A   Partly Cloudy
8:55 PM 28.4 °F 18.0 °F 23.0 °F 80% 30.07 in 10.0 mi NNW 12.7 mph - N/A   Clear
9:15 PM 28.4 °F 19.7 °F 23.0 °F 80% 30.09 in 10.0 mi NW 9.2 mph - N/A   Clear
9:35 PM 26.6 °F 16.8 °F 23.0 °F 86% 30.10 in 10.0 mi NNW 10.4 mph - N/A   Clear
9:55 PM 26.6 °F 19.1 °F 23.0 °F 86% 30.11 in 10.0 mi NW 6.9 mph - N/A   Clear
10:15 PM 26.6 °F 20.0 °F 23.0 °F 86% 30.12 in 10.0 mi NW 5.8 mph - N/A   Clear
10:35 PM 24.8 °F 17.9 °F 23.0 °F 93% 30.13 in 10.0 mi NW 5.8 mph - N/A   Clear
10:55 PM 24.8 °F 16.1 °F 23.0 °F 93% 30.14 in 10.0 mi WNW 8.1 mph - N/A   Clear
11:15 PM 24.8 °F 16.9 °F 23.0 °F 93% 30.15 in 10.0 mi WNW 6.9 mph - N/A   Clear
11:35 PM 24.8 °F 16.1 °F 23.0 °F 93% 30.16 in 10.0 mi WNW 8.1 mph - N/A   Clear
11:55 PM 24.8 °F 16.1 °F 23.0 °F 93% 30.17 in 10.0 mi WNW 8.1 mph - N/A   Clear